Rock Springs, WY

7:06 PM MDT on March 26, 2017 (GMT -0600)
Rock Springs-Sweetwater

Weather History for KRKS - October, 2012

Change the Weather History Date:

Saturday, October 13, 2012

  Actual Average Record
Temperature  
Mean Temperature 50 °F 46 °F  
Max Temperature 59 °F 58 °F 74 °F (2015)
Min Temperature 40 °F 33 °F 6 °F (1969)
Degree Days  
Heating Degree Days 15 19  
Month to date heating degree days 227 224  
Since 1 July heating degree days 356 552  
Cooling Degree Days 0 0  
Month to date cooling degree days 0 0  
Year to date cooling degree days 541 286  
Moisture  
Dew Point 38 °F    
Average Humidity 74    
Maximum Humidity 100    
Minimum Humidity 47    
Precipitation  
Precipitation T in 0.03 in 0.55 in (1966)
Month to date precipitation 0.01 0.37  
Year to date precipitation 2.70 7.07  
Snow  
Snow 0.00 in - - ()
Snow Depth 0.00 in    
Sea Level Pressure  
Sea Level Pressure 30.03 in    
Wind  
Wind Speed 18 mph (WSW)    
Max Wind Speed 27 mph    
Max Gust Speed 40 mph    
Visibility 9 miles    
Events Rain    
T = Trace of Precipitation, MM = Missing Value Source: NWS Daily Summary

Daily Weather History Graph

Daily Weather History Graph

Search for Another Location

Airport or City:

Trip Planner

Search our weather history database for the weather conditions in past years. The results will help you decide how hot, cold, wet, or windy it might be!

Date:

Astronomy

Oct. 13, 2012 Rise Set
Actual Time 7:26 AM MDT 6:37 PM MDT
Civil Twilight 6:58 AM MDT 7:05 PM MDT
Nautical Twilight 6:26 AM MDT 7:37 PM MDT
Astronomical Twilight 5:54 AM MDT 8:09 PM MDT
Moon 5:19 AM MDT (10/13) 5:23 PM MDT (10/13)
Length of Visible Light 12h 06m
Length of Day
11h 10m
Waning Crescent, 4% of the Moon is Illuminated
Oct 13
Waning Crescent
Oct 15
New
Oct 21
First Quarter
Oct 29
Full
Nov 6
Last Quarter

Hourly Weather History & Observations

Time (MDT) Temp. Windchill Dew Point Humidity Pressure Visibility Wind Dir Wind Speed Gust Speed Precip Events Conditions
12:54 AM 42.1 °F 36.6 °F 32.0 °F 67% 29.91 in 10.0 mi SW 9.2 mph - N/A   Overcast
1:54 AM 42.1 °F 34.9 °F 35.1 °F 76% 29.89 in 10.0 mi WSW 13.8 mph - N/A   Overcast
2:54 AM 42.1 °F 34.9 °F 37.0 °F 82% 29.91 in 8.0 mi WSW 13.8 mph - 0.00 in Rain Light Rain
3:31 AM 41.0 °F 34.3 °F 39.2 °F 93% 30.05 in 5.0 mi WSW 11.5 mph - N/A Rain Rain
3:42 AM 41.0 °F 34.3 °F 39.2 °F 93% 30.05 in 5.0 mi WSW 11.5 mph - N/A Rain Rain
3:54 AM 41.0 °F 33.5 °F 39.0 °F 93% 29.93 in 6.0 mi SW 13.8 mph - N/A Rain Light Rain
4:10 AM 41.0 °F 35.2 °F 39.2 °F 93% 30.05 in 10.0 mi SW 9.2 mph - N/A   Overcast
4:54 AM 39.9 °F 31.8 °F 39.0 °F 97% 29.94 in 10.0 mi SW 15.0 mph - N/A Rain Light Rain
5:54 AM 41.0 °F 32.8 °F 37.9 °F 89% 29.96 in 10.0 mi WSW 16.1 mph - N/A   Mostly Cloudy
6:44 AM 41.0 °F 32.5 °F 39.2 °F 93% 30.04 in 10.0 mi WSW 17.3 mph - N/A   Mostly Cloudy
6:54 AM 41.0 °F 32.8 °F 39.0 °F 93% 29.96 in 10.0 mi WSW 16.1 mph - N/A   Mostly Cloudy
7:54 AM 42.1 °F 34.5 °F 39.0 °F 89% 30.00 in 10.0 mi West 15.0 mph - N/A   Overcast
8:54 AM 42.1 °F 33.6 °F 37.9 °F 85% 30.03 in 10.0 mi West 18.4 mph - N/A   Mostly Cloudy
9:54 AM 44.1 °F 36.2 °F 39.0 °F 82% 30.05 in 10.0 mi WSW 18.4 mph - N/A   Overcast
10:16 AM 46.4 °F 39.8 °F 39.2 °F 76% 30.13 in 10.0 mi WSW 16.1 mph - N/A   Mostly Cloudy
10:54 AM 48.0 °F - 39.9 °F 74% 30.05 in 10.0 mi WSW 15.0 mph - N/A   Scattered Clouds
11:54 AM 51.1 °F - 39.9 °F 66% 30.03 in 10.0 mi WSW 17.3 mph - N/A   Mostly Cloudy
12:09 PM 53.6 °F - 39.2 °F 58% 30.12 in 10.0 mi West 19.6 mph - N/A   Scattered Clouds
12:54 PM 55.0 °F - 39.0 °F 55% 30.00 in 10.0 mi WSW 20.7 mph 25.3 mph N/A   Scattered Clouds
1:54 PM 55.9 °F - 36.0 °F 47% 29.99 in 10.0 mi WSW 25.3 mph 31.1 mph N/A   Scattered Clouds
2:54 PM 55.9 °F - 37.9 °F 51% 30.00 in 10.0 mi West 26.5 mph 32.2 mph N/A   Mostly Cloudy
3:54 PM 53.1 °F - 37.0 °F 55% 30.06 in 10.0 mi West 25.3 mph 33.4 mph N/A   Scattered Clouds
4:54 PM 51.1 °F - 37.9 °F 61% 30.09 in 10.0 mi West 23.0 mph 29.9 mph N/A   Overcast
8:54 PM 45.0 °F 37.4 °F 37.0 °F 74% 30.19 in 10.0 mi WSW 18.4 mph - N/A   Clear
9:54 PM 43.0 °F 34.8 °F 37.0 °F 80% 30.21 in 10.0 mi WSW 18.4 mph - N/A   Clear
11:54 PM 42.1 °F 35.2 °F 37.0 °F 82% 30.24 in 10.0 mi SW 12.7 mph - N/A   Clear